Home > Weather > Koror > Past weeks

Flag for Palau Past Weather in Koror, Palau — Yesterday and Last 2 Weeks

Now
84 °F

Broken clouds.


Feels Like: 92 °F
Forecast: 80 / 86 °F
Wind: 12 mph from West

Location: Koror / Palau Island

Current Time: Jul 30, 2016 at 4:28:15 PM

Latest Report: Jul 30, 2016 at 3:50 PM


Visibility: 14 mi

Pressure: 29.75 "Hg

Humidity: 74%

Dew Point: 75 °F

Location of KororLocation

Past Weather in Koror — Graph

°F

Koror Temperature Yesterday

Maximum temperature yesterday: 86 °F (at 9:55 AM)
Minimum temperature yesterday: 75 °F (at 10:53 PM)
Average temperature yesterday: 82 °F

High & Low Weather Summary for the Past Weeks

 TemperatureHumidityPressure
High90 °F (Jul 20, 1:50 PM)100% (Jul 15, 8:51 PM)29.89 "Hg (Jul 15, 8:51 PM)
Low75 °F (Jul 16, 5:50 AM)62% (Jul 22, 10:50 AM)29.08 "Hg (Jul 20, 12:50 PM)
Average81 °F87%29.79 "Hg
* Reported Jul 15 2:50 PM — Jul 30 2:50 PM, Koror, Weather by CustomWeather, © 2016

Note: Actual official high and low records may vary slightly from our data, if they occured in-between our weather recording intervals... More about our weather records

Advertising

Koror Weather History for the Previous 24 Hours

Scroll right to see more
 ConditionsComfort  
Time TempWeatherWind HumidityBarometerVisibility
2:50 PM
Sat, Jul 30
84 °FBroken clouds.10 mph74%29.75 "Hg14 mi
1:50 PM84 °FBroken clouds.7 mph79%29.76 "Hg14 mi
12:53 PM86 °FCloudy.8 mph70%29.78 "Hg14 mi
11:50 AM84 °FCloudy.9 mph74%29.80 "Hg14 mi
10:52 AM84 °FCloudy.10 mph74%29.82 "Hg14 mi
9:54 AM82 °FCloudy.13 mph84%29.84 "Hg14 mi
8:50 AM82 °FCloudy.14 mph79%29.83 "Hg14 mi
7:50 AM81 °FCloudy.12 mph84%29.82 "Hg14 mi
6:50 AM79 °FCloudy.9 mph89%29.79 "Hg14 mi
5:50 AM77 °FOvercast.5 mph94%29.77 "Hg14 mi
4:50 AM77 °FMostly cloudy.5 mph94%29.76 "Hg14 mi
3:50 AM77 °FMostly cloudy.6 mph94%29.77 "Hg14 mi
2:50 AM75 °FMostly cloudy.3 mph100%29.78 "Hg14 mi
1:50 AM77 °FMostly cloudy.5 mph94%29.78 "Hg14 mi
12:50 AM75 °FSprinkles. Mostly cloudy.No wind94%29.79 "Hg12 mi
11:50 PM
Fri, Jul 29
75 °FSprinkles. Mostly cloudy.3 mph94%29.82 "Hg12 mi
10:53 PM75 °FSprinkles. Mostly cloudy.13 mph94%29.82 "Hg10 mi
9:54 PM79 °FMostly cloudy.5 mph94%29.82 "Hg13 mi
8:50 PM79 °FMostly cloudy.6 mph94%29.80 "Hg13 mi
7:55 PM81 °FSprinkles. Mostly cloudy.8 mph89%29.79 "Hg12 mi
6:55 PM84 °FSprinkles. Mostly cloudy.12 mph74%29.75 "Hg13 mi
5:50 PM82 °FCloudy.17 mph79%29.72 "Hg14 mi
4:55 PM82 °FCloudy.15 mph79%29.71 "Hg14 mi
Weather by CustomWeather, © 2016

See weather overviewHow to use our weather pages